STARLINK-34756

Last updated on Tue Aug 19 2025 00:02:06 GMT+0000 (Coordinated Universal Time)

1 64849U 25152H 25230.58335648 .00101540 00000+0 10940-2 0 9996 2 64849 97.5999 84.3930 0001051 274.1713 215.8171 15.63362694 5421
UTC large
Height (km)
Speed (km/s)
/
Latitude / Longitude
Inclination (degrees)
Orbital Period (minutes)
Azimuth
Elevation
Range (km)
Doppler Factor

Next 0 passes for location: London (51.5072 / 0.1276)

Sorry there are no passes over London.